RÉSULTATS
TVTC 2016

results_logo
Scratch 12 km nordique Féminin 12 km nordique Masculin 12 km nordique Catég. 12 km nordique

Scratch 6 km Féminin 6 km Masculin 6 km Catég. 6 km

Scratch 12 km Féminin 12 km Masculin 12 km Catég. 12 km

Scratch 24 km
Féminin 24 km Masculin 24 km Catég. 24 km

Statistiques
Temps officiel moyen : 02:15:32 (masc. 02:13:06 / fém. 02:31:52)
Finishers : 170 dont 148 masc. (87%) / 22 fém. (13%)
Licenciés : 50 (29 %)
Pour toute question concernant votre temps de course, cliquez ici
Class.Nom de famille/PrénomTempsMoy.Doss.Nom du groupe/club ou entrepriseCatégorieClass./cat.SexeClass./sexePaysNuméro de licenceDiplômePartagez !
1GENCE Bertrand01:35:3315.0763CMSE1M1FRA1756439
2TIREL Guillaume01:38:4814.57159ACCRORUNSE2M2FRA
3RAGUIDEAU JULIEN01:42:0114.12186SE3M3FRA
4PRUGNAUD Gilles01:42:3714.03133ANDRESY ATHLETISMEM11M4FRA476572
5SCHNEIDER Christophe01:43:3313.91151FREE IRON TEAMM12M5FRA
6SANSON Christophe01:44:2213.80149M13M6FRA
7RADUCKI Kevin01:46:2513.53135DRAVEIL TRIATHLONSE4M7FRAA01876C
8JORDAN Guillaume01:46:3713.5184SE5M8FRA
9BANDRAC Fabrice01:47:1113.438M14M9FRA
10CLERC Florian01:47:3713.3834SE6M10FRA
11DJENAOUSSINE Abdelkader01:48:2013.2944CA BEYNESM21M11FRA1063326
12DELARUELLE Jean-Baptiste01:48:4813.2442SE7M12FRA
13MANCHON Kévin01:49:2313.16107CAP COIGNIERESSE8M13FRA
14BETHUEL Marc01:49:5113.1115YPRL SAINT CYR TRIATHLONM15M14FRAA02655C0130020MV1FRA
15MAXIME EMMANUEL01:50:2813.04185SE9M15FRA
16GIRAUD Pascal01:50:3113.0367ASCC RAMBOUILLET OLYMPIQUESE10M16FRA
17GRAIZON Martin01:50:5212.9970SE11M17FRA
18LAHILLE Thomas01:50:5312.9992SE12M18FRA
19OLLAGNIER Jerome01:51:2212.93123ASCC RAMBOUILLET OLYMPIQUEM16M19FRA1518392
20BOURCIER STEPHANE01:52:4612.77181SE13M20FRA
21OLIVIER Cyril01:53:5112.65122SE14M21FRA
22BALAUDÉ Jean-François01:54:4312.557M22M22FRA
23JAOUEN Yann01:55:3712.4582LA FINE ÉQUIPE DU 11SE15M23FRA
24MEILLAND Renaud01:55:3912.45114MEILLANDSE16M24FRAA04489C0130044MS4FRA
25HERMANT Rémi01:56:0012.4179SE17M25FRA
26BONNET Maxence01:56:1912.38173SE18M26FRA
27COUTREAU Julien01:57:2612.2637M17M27FRA
28SAVINO Gil01:57:3712.24150RUMBA - BOIS D'ARCYM18M28FRA1757610
29VANDEWIELE Jerome01:57:4012.24164M19M29FRAA60526C
30GUEGAN Elodie01:57:5012.2272SE1F1FRA
31LABARRE Cyril01:57:5412.2190CSA 7RMATM110M30FRA
32SOYER Hervé01:58:3112.15156ESPERANCE ENDURANCE TRAILSE19M31FRA1614670
33BOURGET Pierre01:58:3212.1526SE20M32FRA
34COUGARD Benoit01:58:5112.1236M111M33FRA
35JOOS Eric01:59:0812.0983CA BEYNESM112M34FRA1494986
36LACAINE Julien01:59:1812.0791CA BEYNESSE21M35FRA768270
37MARS Didier01:59:3312.05111ANDRESY ATHLETISMEM113M36FRA1794763
38LEMONNIER Christophe01:59:5612.01103C.A.JM114M37FRA1809516
39LANDES Remi01:59:5912.0095SE22M38FRA
40DEFOSSE Thomas02:00:1211.9841C.A.JSE23M39FRA1629257
41TISSOT Vincent02:02:1211.78160SE24M40FRA
42GUIGNARD William02:02:1411.7875WOLF GAMB TEAMM23M41FRAEN COURS FFA
43RUPPRECHT Benoît02:02:3711.74147LES FOULÉES DE SAINT-GERMAIN EN LAYEM115M42FRA1001207
44BABUEL Charles02:03:0211.705ASCC RAMBOUILLET OLYMPIQUEM116M43FRAA01804C
45SELVES Frederic02:03:2511.67154SE25M44FRA
46MANSART Sébastien02:03:4011.64108SE26M45FRA
47FILLETTE Stephane02:04:1511.5955FOULEES DE ST GERMAIN EN LAYEM117M46FRA1046250
48CHIOMENTO Fabien02:04:5411.5333SE27M47FRA
49POULLARD Christophe02:05:0511.51130CA BEYNESM118M48FRA530585
50SABARLY Mathieu02:05:2711.48148SE28M49FRA
51BERNADET Arnaud02:05:4011.4612M119M50FRA
52CLEMENT SEBASTIEN02:05:4811.45184SE29M51FRA
53CHAPPUIS Julien02:05:5811.4330SE30M52FRA
54GOMES Emmanuel02:06:0011.4368SE31M53FRA
55SCIELLER Patrick02:06:0511.42153M24M54FRA
56FRISCA PASCAL02:06:5511.35182M25M55FRA
57PRUVOT Jerome02:06:5611.34179SE32M56FRA
58HOEBLER Yann02:07:0711.33177ASC GANM120M57FRA1676150
59CHARBONNEAU Sébastien02:07:1411.3231SE33M58FRA
60HELMER Cedric02:08:4611.1877M121M59FRA
61BAUDONNET Thomas02:08:5611.1710NSTSE34M60FRAA74915C
62DANAÏLOV Kamen02:08:5611.17174M122M61FRA
63HULIN Bruno02:08:5711.1781NOGENT SOLIDARITÉ TRIATHLONM123M62FRA0130078MV2FRA
64AVRIN Willy02:09:1811.144M124M63FRA
65HAMONIER Cedric02:09:2111.1376SE35M64FRA
66BERTRAND Yannick02:09:4911.0914SE36M65FRA
67CHASSAGNE Marc02:09:5611.0832M125M66FRA
68PINTO Raoul02:09:5811.08127SE37M67FRA
69ESPER Elena02:10:0011.0852FREE RUNNERS LE CLUBM11F2FRA1601036
70LIGNEY François02:10:0011.08104LE SOUFFLE D'ORGERUSM26M68FRA1216594
71PAPET Stef02:10:0711.07124RUMBM126M69FRA
72LEGER Luc02:11:1110.98101M27M70FRA
73DUPARC Adrien02:12:0610.9050JU1M71FRA
74DOUY Yohan02:12:1910.8846YPRL SAINT CYR TRIATHLONSE38M72FRAA57706C
75MINOT Eric02:12:2610.87117M127M73FRA
76LEBLEU Jérôme02:12:4310.8599LES FURIEUX DU BITUMESE39M74FRA
77LE GUEN Fabrice02:13:3510.7898M128M75FRA
78SCHNEIDER Céline02:13:3610.78152FREE IRON TEAMM12F3FRA
79MARGERTE Philippe02:13:4710.76109DRAVEIL TRIATHLONM28M76FRAA01847C
80MERCIER Nicolas02:14:1510.73115TRIATH CLUB ANDRESYM129M77FRAA01991C
81BOCQUET Olivier02:14:2310.7218SE40M78FRA
82LE GALLOU Pierre-Yves02:15:0510.6697CHAVILLE ATHLÉTISMEM31M79FRA301393
83BAS Ludovic02:15:0810.669CMSE41M80FRA1460710
84BACQUET Thomas02:15:3610.626SE42M81FRA
85DEBOSQUE Xavier02:15:5410.6040SE43M82FRA
86RIVEIRRE Patrick02:16:2010.56139CAP COIGNIERESM29M83FRA
87BERNADET Emilie02:16:2810.5513SE2F4FRA
88GAILLARD Stephan02:16:2810.5557CLOCAM130M84FRA
89CAPELLO JEROME02:16:3610.54180ACCRORUNM131M85FRA
90GUERCI Julien02:16:4010.5474SE44M86FRA
91MUNOZ Jose02:16:4010.54119FOULEES DE ST GERMAIN EN LAYEM132M87FRA1542990
92POUZADOUX Matthieu02:17:3510.47131LE CHESNAY 78 ASSE45M88FRA148347
93VEJRICH Patrick02:18:1010.42166CHAVILLE ATHLÉTISMEM210M89FRA1064959
94EVAIN Jean Marc02:18:2210.41176M133M90FRA
95DUBOIS Fabrice02:18:2910.4049M134M91FRA
96GENOIS Mickael02:18:3310.3964MACADAM AND TRAILM135M92FRA
97SERGINSKY Fabian02:18:4810.37155SE46M93FRA
98LECOHUÉ Cédric02:20:1310.27100SE47M94FRA
99ROY Alexandre02:20:2110.26146LE CHESNAY 78 ASSE48M95FRA
100JOUAN Elise02:20:2610.2585SE3F5FRA
101DOUY Benjamin02:20:3610.2445YPRL SAINT CYR TRIATHLONSE49M96FRAA75746C
102TOUTOUTE-FAUCONNIER Francky02:21:3410.17163LES FOULÉES DE SAINT-GERMAIN EN LAYEM211M97FRA436832
103AMBROISE Philippe02:21:3710.171M136M98FRA
104BUGAND Julien02:22:3410.1029SE50M99FRA
105LEJAY DAVID02:22:3610.10187SE51M100FRA
106DROUEN Guillaume02:23:4010.0247SE52M101FRA
107FEMERY Nadège02:24:0310.0054SE4F6FRA
108KELLER Guillaume02:25:179.9188M212M102FRA
109GILLON Julien02:25:449.8866SE53M103FRA
110DESHOULIERES Mathieu02:25:559.87175SE54M104FRA
111DEPREZ Gabriel02:25:559.8743SILCA CLUB RUNNINGM213M105FRAT196661
112KOSZYCZARZ Cyril02:26:179.8489SE55M106FRA
113ROMAN Emmanuel02:26:179.84142SE56M107FRA
114HRISTOVA Raya02:26:219.8480SE5F7FRA
115RIBAUD Clément02:27:009.80138SE57M108FRA
116CRABEIL Thibaut02:27:009.8038SE58M109FRA
117BOBY Laurent02:27:469.7517M214M110FRA
118BOBY Giulia02:27:469.7516M21F8FRA
119GROSJEAN Samuel02:28:559.6771SE59M111FRA
120ROUAULT Magali02:29:049.66143SE6F9FRA
121OBIN Christophe02:29:169.65121M137M112FRA
122YVONNET Franck02:30:069.59170M138M113FRA
123RENOU Cyrille02:30:149.59137UA VERSAILLESM139M114FRA1571827
124MAGUIN Laurent02:30:469.55106SMACM215M115FRA774022
125DUBAR Grégory02:30:579.5448LES FOULÉES DE SAINT-GERMAIN EN LAYESE60M116FRA1864979
126GAUTREAU Philippe02:31:459.4960LE CHESNAY 78 ASSE61M117FRA1704679
127LANDAUD Sophie02:31:459.4994M22F10FRA
128GUERCI Jean Yves02:32:129.4673M216M118FRA
129GAILLON Veronique02:32:269.4558US CRETEILM23F11FRA1378256
130AUGUSTE François02:32:289.442M140M119FRA
131BOUCHER Patrice02:32:589.4122M141M120FRA
132MERRIEN Gwenaelle02:33:049.41116TRAIL ENTRE ELLESM13F12FRA
133ROLLOT Morgane02:33:049.41141SE7F13FRA
134HENRIET James02:33:219.3978ANDRESY ATHLETISMEM142M121FRA1584497
135MARIETTE Alain02:34:049.35110M217M122FRA
136VAUDOUR Rémy02:34:119.34165M218M123FRA
137STREISSEL Marie-Caroline02:34:239.33157ANDRESY ATHLETISMESE8F14FRA1755670
138TILLIER Ludovic02:34:329.32158SE62M124FRA
139BRULEZ Frédéric02:34:599.2928MACADAM AND TRAILM143M125FRA
140RAUMEL Scheherazade02:35:459.25136DOMONT ATHLETHISMEM14F15FRA1466289
141GEGOUT Sébastien02:36:249.2162SE63M126FRA55578952
142BELLANDE Herve02:36:389.1911M144M127FRA
143RIVIERE Jerome02:36:519.18140MACADAM AND TRAILM145M128FRA
144MAUCLERE Pascal02:37:039.17178M219M129FRA
145PROVOST Nicolas02:37:369.14132M146M130FRA
146POULAIN Pascal02:38:229.09128ASPTT COMPIEGNEM220M131FRA
147ZIMMERMANN Cyril02:38:239.09171EA SAINT QUENTIN EN YVELINESM147M132FRA1823809
148LANDAUD Adèle02:40:308.9793SE9F16FRA
149GATEFAIT Véronique02:40:368.9759M15F17FRA
150PETITCOLLIN Patrice02:40:548.95125M221M133FRA
151WATANABE Riko02:41:188.93168M24F18FRA
152CLUET Pascal02:41:198.9335M222M134FRA
153LOISEL Laurent02:43:098.83105CLOCAM148M135FRA1593817
154TOURTELIER Sonia02:49:318.49162M16F19FRA
155TOURTELIER Gael02:49:328.49161M149M136FRA
156BONPAN Erick02:50:148.4620M150M137FRA
157ROUE Delphine02:50:438.44144UAISE10F20FRA1729727
158DURAND Yann02:51:148.4151MACADAM AND TRAILM151M138FRA
159FELDEN Sylvie02:54:438.2453SAMM25F21FRA1863455
160WIBOUT Alexandre02:54:498.24169SE64M139FRA
161BRISSON Guillaume02:54:508.2427SE65M140FRA
162MOUNDRAS Billy02:54:508.24118SE66M141FRA
163POULIQUEN Nicolas02:54:518.24129M152M142FRA
164VILLANI Patrick02:56:458.15167M223M143FRA
165GONTIER Myriam02:57:598.0969M17F22FRA
166BOUGOT Thomas02:58:008.0924SE67M144FRA
167BONNETAIN Jean-Luc01:19:4118.0719APY BUCM224M145FRA1329090
168BONDUE Olivier01:24:5316.96172M225M146FRA
169VEIL Jean Christophe01:26:5616.56183M226M147FRA
170DALMAIS Frederic02:20:3610.2439M153M148FRA
logo_onsinscrit